User: anonymous   Login
Location: Emporia
(38.4040°N, 96.1810°W)
Time: 19:17:53
(UTC-05:00)
Language:

STARS - Orbit

View from above orbital plane
View from above orbital plane
View from above satellite
View from above satellite

Ground track
Ground track

The orbit data is extracted from the following two-line orbital elements,

1 33498U 09002G   18201.55399122 +.00000181 +00000-0 +32186-4 0  9990
2 33498 098.3306 034.3882 0011636 149.4481 276.5745 14.78833030510340
Epoch (UTC): 20 July 2018 13:17:44
Eccentricity: 0.0011636
inclination: 98.3306°
perigee height: 625 km
apogee height: 641 km
right ascension of ascending node: 34.3882°
argument of perigee: 149.4481°
revolutions per day: 14.78833030
mean anomaly at epoch: 276.5745°
orbit number at epoch: 51034

The dashed part of the orbit path shows where the satellite is in the earth's shadow,  

DLR